User: anonymous   Login
Location: ????????
(37.9452°N, 23.1472°E)
Time: 11:24:52
(UTC+00:00)
Language:

Cosmos 1782 Rocket - Orbit

View from above orbital plane
View from above orbital plane
View from above satellite
View from above satellite

Ground track
Ground track

The orbit data is extracted from the following two-line orbital elements,

1 16987U 86074B   24164.83304299  .00000781  00000-0  90261-4 0  9999
2 16987  82.5162  78.8656 0019111 125.0929 296.0417 14.84196760 15751
Epoch (UTC): 12 June 2024 19:59:34
Eccentricity: 0.0019111
inclination: 82.5162°
perigee height: 603 km
apogee height: 629 km
right ascension of ascending node: 78.8656°
argument of perigee: 125.0929°
revolutions per day: 14.84196760
mean anomaly at epoch: 296.0417°
orbit number at epoch: 1575

The dashed part of the orbit path shows where the satellite is in the earth's shadow,  

DLR